Regional Weather Roundup
Issued by NWS

Home | Current Version | Previous Version | Text Only | Print | Product List | Glossary On
Versions: 1 2 3 4 5 6 7 8 9 10 11 12 13 14 15 16 17 18 19 20 21 22 23 24 25 26 27 28 29 30 31 32 33 34 35 36 37 38 39 40 41 42 43 44 45 46 47 48 49 50
405
ASUS43 KLSX 080210
RWRMO

WEATHER SUMMARY FOR MISSOURI
NATIONAL WEATHER SERVICE SPRINGFIELD MO
800 PM CST WED DEC 07 2016

NOTE: "FAIR" INDICATES FEW OR NO CLOUDS BELOW 12,000 FEET WITH NO
       SIGNIFICANT WEATHER AND/OR OBSTRUCTIONS TO VISIBILITY.
       CURRENT SKY AND/OR WEATHER CONDITIONS ARE NOT AVAILABLE FOR
       CHILLICOTHE AND FARMINGTON.

MOZ001>031-035>038-043-044-053-054-080300-
...NORTHERN AND WESTERN MISSOURI...

CITY           SKY/WX    TMP DP  RH WIND       PRES   REMARKS
KANSAS CTY INT CLEAR     21   9  59 NW6       30.41R WCI  13
KANSAS C DTWN  CLEAR     24  12  60 NW8       30.43R WCI  15
LEE`S SUMMIT   CLEAR     24  11  57 NW12      30.41R WCI  13
ST JOSEPH      CLEAR     19  10  68 W7        30.44R WCI  10
CHILLICOTHE      N/A     23  10  57 NW9G16    30.41R WCI  13
KIRKSVILLE     CLEAR     22  11  62 W14       30.34R WCI   9

$$
MOZ066>068-077>081-088>096-101>105-080300-
...SOUTHWEST MISSOURI...

CITY           SKY/WX    TMP DP  RH WIND       PRES   REMARKS
SPRINGFIELD    FLURRIES  29  25  85 N9        30.34R WCI  20
JOPLIN         CLOUDY    29  25  85 N6        30.40R WCI  23
BRANSON        CLOUDY    32  18  55 N12       30.32R WCI  23

$$
MOZ032>034-039>042-045>050-055>058-069>072-080300-
...CENTRAL MISSOURI...

CITY           SKY/WX    TMP DP  RH WIND       PRES   REMARKS
COLUMBIA       CLOUDY    28  20  71 W8        30.35R WCI  20
JEFFERSON CITY CLOUDY    29  21  72 W8        30.37R WCI  21
ROLLA          LGT SNOW  28  25  88 NW10      30.32R FOG     WCI  19
SEDALIA        CLOUDY    27  20  75 NW9       30.39R WCI  18
WARRENSBURG    PTCLDY    27  18  69 NW8       30.41R WCI  18
OSAGE BEACH    FLURRIES  28  24  85 NW6       30.38R WCI  22

$$
MOZ051-052-059>065-080300-
...EAST CENTRAL MISSOURI...

CITY           SKY/WX    TMP DP  RH WIND       PRES   REMARKS
ST LOUIS INTL  CLOUDY    35  17  47 NW15G21   30.30R WCI  25
SPIRIT OF STL  CLOUDY    33  19  56 NW10      30.31R WCI  25
ST CHARLES     MOCLDY    33  18  53 NW14      30.30R WCI  23

$$
MOZ072>076-082>087-097>100-106>115-080300-
...SOUTH CENTRAL AND SOUTHEAST MISSOURI...

CITY           SKY/WX    TMP DP  RH WIND       PRES   REMARKS
CAPE GIRARDEAU CLOUDY    37  23  56 N8        30.27S
FARMINGTON     CLOUDY    34  19  54 NW8       30.29R WCI  27
POPLAR BLUFF   CLOUDY    39  21  48 N12       30.28R
WEST PLAINS    CLOUDY    34  19  54 N8        30.30R WCI  27

$$




USA.gov is the U.S. government's official web portal to all federal, state and local government web resources and services.